KMIEDWAR2 Weather Reports


time (UTC)temp
C
wind
direction
speed
KPH
gust
KPH
rain 1hr
cm
rain 24hr
cm
rain mn
cm
humidity
%
barometer
mb
20260509024010 12 210 0.0 0.0 0.00 0.03 0.03 72 1006.2
20260509023510 12 210 0.0 0.0 0.00 0.03 0.03 72 1006.3
20260509023011 12 210 0.0 0.0 0.00 0.03 0.03 72 1006.2
20260509022511 12 0.0 41.8 0.00 0.03 0.03 75 1006.2
20260509022010 12 209 0.0 41.8 0.00 0.03 0.03 75 1006.2
20260509021511 12 209 0.0 41.8 0.00 0.03 0.03 75 1006.3
20260509020510 12 209 0.0 41.8 0.00 0.03 0.03 75 1006.3
20260509020010 12 208 0.0 41.8 0.00 0.03 0.03 76 1006.4
20260509015511 -17 210 0.0 41.8 0.00 0.03 0.03 1006.4
20260509014511 -17 210 0.0 41.8 0.00 0.03 0.03 1006.3
20260509014011 -17 210 0.0 41.8 0.00 0.03 0.03 1006.2
20260509013510 -17 210 0.0 41.8 0.00 0.03 0.03 1006.2
20260509012511 -17 0.0 41.8 0.00 0.03 0.03 1006.1
20260509012010 -17 0.0 41.8 0.00 0.03 0.03 1006.1
20260509011511 -17 0.0 41.8 0.00 0.03 0.03 1006.2
20260509011010 -17 0.0 41.8 0.00 0.03 0.03 1006.2
20260509010511 -17 0.0 41.8 0.00 0.03 0.03 1006.1
20260509010011 14 209 0.0 41.8 0.00 0.20 0.03 59 1005.9
20260509005510 14 209 0.0 41.8 0.00 0.20 0.03 59 1006.0
20260509005011 14 209 0.0 41.8 0.00 0.20 0.03 59 1005.9
20260509004011 18 0.0 0.0 0.00 0.20 0.03 59 1005.9
20260509003510 18 205 1.6 0.0 0.00 0.20 0.03 59 1005.9
20260509002510 18 205 0.0 0.0 0.00 0.20 0.03 59 1005.7
20260509002011 18 205 0.0 0.0 0.00 0.20 0.03 59 1005.7
20260509001510 18 205 0.0 0.0 0.00 0.20 0.03 59 1005.7
20260509000511 18 0.0 41.8 0.00 0.20 0.03 59 1005.7
20260509000011 18 202 1.6 41.8 0.00 0.20 0.03 59 1005.7
20260508235511 18 202 1.6 41.8 0.00 0.20 0.03 59 1005.8
20260508235011 18 202 1.6 41.8 0.00 0.20 0.03 59 1005.8
20260508233010 20 210 0.0 41.8 0.00 0.20 0.03 59 1005.8
20260508232511 20 211 0.0 41.8 0.00 0.20 0.03 59 1005.8
20260508232010 20 211 0.0 41.8 0.00 0.20 0.03 59 1005.8
20260508231511 20 211 0.0 41.8 0.00 0.20 0.03 59 1006.0
20260508231010 20 212 1.6 41.8 0.00 0.20 0.03 59 1005.9
20260508230511 20 212 1.6 41.8 0.00 0.20 0.03 59 1006.0
20260508230011 21 212 1.6 41.8 0.00 0.20 0.03 59 1006.0
20260508225511 21 200 1.6 41.8 0.00 0.23 0.03 59 1006.0
20260508225011 21 200 1.6 41.8 0.00 0.23 0.03 59 1006.0
20260508224511 20 194 1.6 41.8 0.00 0.23 0.03 59 1005.9
20260508223510 18 201 0.0 41.8 0.00 0.23 0.03 59 1006.0
20260508223011 18 201 0.0 41.8 0.00 0.23 0.03 59 1006.1
20260508222511 18 201 0.0 41.8 0.00 0.23 0.03 59 1006.0
20260508222010 18 0.0 41.8 0.00 0.23 0.03 59 1006.0
20260508221511 18 257 0.0 41.8 0.00 0.23 0.03 59 1006.1
20260508221011 18 257 0.0 41.8 0.00 0.23 0.03 59 1006.1
20260508220510 17 274 1.6 41.8 0.00 0.23 0.03 65 1006.1
20260508220010 17 274 1.6 41.8 0.00 0.23 0.03 65 1006.1
20260508215511 17 274 1.6 41.8 0.00 0.23 0.03 65 1006.1
20260508215011 17 0.0 41.8 0.00 0.23 0.03 65 1006.1
20260508214511 17 165 8.0 41.8 0.00 0.23 0.03 65 1006.1
20260508214011 17 165 8.0 41.8 0.00 0.23 0.03 65 1006.2
20260508212511 17 198 3.2 0.0 0.00 0.23 0.03 65 1006.3
20260508212011 17 198 3.2 0.0 0.00 0.23 0.03 65 1006.3
20260508211511 -17 0.0 41.8 0.00 0.23 0.03 1006.3
20260508211011 -17 0.0 41.8 0.00 0.23 0.03 1006.4
20260508210511 -17 0.0 41.8 0.00 0.23 0.03 1006.5
20260508210011 -17 0.0 41.8 0.00 0.23 0.03 1006.5
20260508205011 -17 0.0 41.8 0.00 0.23 0.03 1006.6
20260508204511 -17 0.0 41.8 0.00 0.23 0.03 1006.7
20260508204011 -17 0.0 41.8 0.00 0.23 0.03 1006.7
20260508203511 -17 0.0 41.8 0.00 0.23 0.03 1006.8
20260508202511 18 204 4.8 41.8 0.00 0.23 0.03 64 1006.9
20260508202011 18 204 4.8 41.8 0.00 0.23 0.03 64 1006.9
20260508201511 18 204 4.8 41.8 0.00 0.23 0.03 64 1007.0
20260508201011 18 0.0 1.6 0.00 0.23 0.03 64 1007.1
20260508200011 18 298 3.2 1.6 0.00 0.23 0.03 64 1007.2
20260508195011 18 205 1.6 1.6 0.00 0.23 0.03 61 1007.2
20260508194511 18 211 1.6 1.6 0.00 0.23 0.03 61 1007.3
20260508194011 18 205 1.6 1.6 0.00 0.23 0.03 61 1007.4
20260508193011 18 211 4.8 0.0 0.00 0.23 0.03 59 1007.6
20260508192511 18 211 4.8 0.0 0.00 0.23 0.03 59 1007.6
20260508192011 18 183 0.0 0.0 0.00 0.23 0.03 59 1007.7
20260508191511 18 183 0.0 0.0 0.00 0.23 0.03 59 1007.8
20260508191011 19 201 0.0 0.0 0.00 0.23 0.03 59 1008.0
20260508190511 19 210 1.6 0.0 0.00 0.23 0.03 59 1008.0
20260508190011 19 217 1.6 0.0 0.00 0.23 0.03 59 1008.2
20260508185511 19 207 3.2 0.0 0.00 0.23 0.03 57 1008.2
20260508185011 19 207 3.2 0.0 0.00 0.23 0.03 57 1008.2
20260508184511 18 121 0.0 0.0 0.00 0.23 0.03 57 1008.3
20260508184011 18 121 0.0 0.0 0.00 0.23 0.03 57 1008.3
20260508183511 18 183 1.6 0.0 0.00 0.23 0.03 57 1008.4
20260508182511 18 190 1.6 1.6 0.00 0.23 0.03 47 1008.5
20260508182011 20 150 1.6 1.6 0.00 0.23 0.03 47 1008.5
20260508181511 20 194 3.2 0.0 0.00 0.23 0.03 47 1008.5
20260508180511 20 248 1.6 0.0 0.00 0.23 0.03 49 1008.6
20260508180011 19 217 3.2 0.0 0.00 0.23 0.03 49 1008.7
20260508175511 19 215 1.6 0.0 0.00 0.23 0.03 49 1008.8
20260508174511 19 215 1.6 0.0 0.00 0.23 0.03 49 1009.0
20260508174011 19 141 1.6 0.0 0.00 0.23 0.03 49 1009.1
20260508173511 19 217 3.2 0.0 0.00 0.23 0.03 54 1009.4
20260508173011 18 160 1.6 0.0 0.00 0.23 0.03 54 1009.4
20260508171511 18 146 0.0 1.6 0.00 0.23 0.03 54 1009.6
20260508171011 18 146 0.0 1.6 0.00 0.23 0.03 54 1009.6
20260508170011 18 228 1.6 1.6 0.00 0.23 0.03 100 1009.7
20260508165511 18 310 0.0 0.0 0.00 0.23 0.03 100 1009.8
20260508165011 18 295 0.0 0.0 0.00 0.23 0.03 100 1009.8
20260508164511 18 295 0.0 0.0 0.00 0.23 0.03 100 1009.9
20260508163511 17 250 1.6 41.8 0.00 0.23 0.03 100 1010.1
20260508162510 16 203 1.6 41.8 0.00 0.23 0.03 100 1010.2
20260508162010 16 203 1.6 41.8 0.00 0.23 0.03 100 1010.3
20260508161010 16 319 1.6 41.8 0.00 0.23 0.03 100 1010.4
20260508160510 16 319 1.6 41.8 0.00 0.23 0.03 100 1010.4
20260508160010 16 248 3.2 41.8 0.00 0.23 0.03 100 1010.4
20260508155510 16 248 3.2 41.8 0.00 0.23 0.03 100 1010.4
20260508155010 16 248 3.2 41.8 0.00 0.23 0.03 100 1010.4
20260508154010 16 195 1.6 41.8 0.00 0.23 0.03 100 1010.5
20260508152510 15 130 1.6 41.8 0.00 0.23 0.03 100 1010.5
20260508152010 15 0.0 41.8 0.00 0.23 0.03 100 1010.4
20260508151510 15 221 1.6 41.8 0.00 0.23 0.03 100 1010.5
20260508151010 15 221 1.6 41.8 0.00 0.23 0.03 100 1010.5
20260508150510 14 205 1.6 41.8 0.00 0.23 0.03 100 1010.4
20260508150010 14 205 1.6 41.8 0.00 0.23 0.03 100 1010.4
20260508145510 14 205 1.6 41.8 0.00 0.23 0.03 100 1010.4
20260508145010 14 232 0.0 0.0 0.00 0.23 0.03 100 1010.5
20260508144510 14 232 0.0 0.0 0.00 0.23 0.03 100 1010.5
20260508144010 14 232 0.0 0.0 0.00 0.23 0.03 100 1010.6
20260508143510 13 208 0.0 0.0 0.00 0.23 0.03 100 1010.7
20260508143010 13 208 0.0 0.0 0.00 0.23 0.03 100 1010.7
20260508142510 13 208 0.0 0.0 0.00 0.23 0.03 100 1010.8
20260508142010 15 186 0.0 0.0 0.00 0.23 0.03 100 1010.7
20260508141510 15 186 0.0 0.0 0.00 0.23 0.03 100 1010.9
20260508141010 11 174 1.6 0.0 0.00 0.23 0.03 100 1011.0
20260508140510 11 208 1.6 0.0 0.00 0.23 0.03 100 1011.0
20260508135510 11 197 1.6 0.0 0.00 0.23 0.03 100 1011.0
20260508135010 11 197 1.6 0.0 0.00 0.23 0.03 100 1011.1
20260508134510 11 197 1.6 0.0 0.00 0.23 0.03 100 1011.1
20260508134010 11 278 0.0 0.0 0.00 0.23 0.03 100 1011.0
20260508133510 11 257 1.6 0.0 0.00 0.23 0.03 100 1011.1
20260508133010 11 153 1.6 0.0 0.00 0.23 0.03 100 1010.9
20260508132510 11 138 0.0 0.0 0.00 0.23 0.03 100 1010.9
20260508132010 11 197 0.0 0.0 0.00 0.23 0.03 100 1010.9
20260508131510 11 203 0.0 0.0 0.00 0.23 0.03 100 1011.0
20260508131010 11 203 0.0 0.0 0.00 0.23 0.03 100 1010.9
20260508130510 11 203 0.0 0.0 0.00 0.23 0.03 100 1011.1
20260508130010 11 143 0.0 0.0 0.00 0.23 0.03 100 1011.0
20260508125510 10 143 0.0 0.0 0.00 0.23 0.03 100 1011.1
20260508125010 10 144 0.0 0.0 0.00 0.23 0.03 100 1011.1
20260508124510 9 191 0.0 0.0 0.00 0.23 0.03 100 1011.0
20260508123510 8 195 0.0 0.0 0.00 0.23 0.03 100 1011.1
20260508123010 8 194 0.0 0.0 0.00 0.23 0.03 100 1011.0
20260508122010 8 193 0.0 0.0 0.00 0.23 0.03 100 1011.0
20260508121510 8 194 0.0 0.0 0.00 0.23 0.03 100 1011.0
20260508121010 8 194 0.0 0.0 0.00 0.23 0.03 100 1010.9
20260508120510 8 194 0.0 0.0 0.00 0.23 0.03 100 1011.0
20260508120010 8 194 0.0 0.0 0.00 0.23 0.03 100 1010.9
20260508115510 7 194 0.0 0.0 0.00 0.23 0.03 100 1010.8
20260508114510 6 194 0.0 0.0 0.00 0.23 0.03 100 1010.8
20260508113510 5 194 0.0 0.0 0.00 0.23 0.03 100 1010.7
20260508113010 5 194 0.0 0.0 0.00 0.23 0.03 100 1010.8
20260508112510 4 194 0.0 0.0 0.00 0.23 0.03 100 1010.8
20260508110510 4 194 0.0 0.0 0.00 0.23 0.03 1010.5
20260508110010 -17 0.0 41.8 0.00 0.23 0.03 1010.5
20260508105510 -17 0.0 41.8 0.00 0.23 0.03 1010.4
20260508105010 -17 0.0 41.8 0.00 0.23 0.03 1010.5
20260508104511 -17 0.0 41.8 0.00 0.23 0.03 1010.5
20260508103511 -17 0.0 41.8 0.00 0.23 0.03 1010.4
20260508103010 -17 0.0 41.8 0.00 0.23 0.03 1010.5
20260508102010 -17 0.0 41.8 0.00 0.23 0.03 1010.6
20260508101511 -17 0.0 41.8 0.00 0.23 0.03 1010.5
20260508101010 -17 0.0 41.8 0.00 0.23 0.03 1010.5
20260508100510 -17 0.0 41.8 0.00 0.23 0.03 1010.5
20260508100010 -17 0.0 41.8 0.00 0.23 0.03 1010.4
20260508095511 -17 0.0 41.8 0.00 0.23 0.03 1010.5
20260508095011 -17 0.0 41.8 0.00 0.23 0.03 1010.5
20260508094511 -17 0.0 41.8 0.00 0.23 0.03 1010.5
20260508094010 -17 0.0 41.8 0.00 0.23 0.03 1010.5
20260508093510 -17 0.0 41.8 0.00 0.23 0.03 1010.6
20260508092511 4 194 0.0 0.0 0.00 0.23 0.03 100 1010.7
20260508092011 4 194 0.0 0.0 0.00 0.23 0.03 100 1010.6
20260508091510 4 194 0.0 0.0 0.00 0.23 0.03 100 1010.6
20260508091010 5 194 0.0 0.0 0.00 0.23 0.03 100 1010.6
20260508090510 5 194 0.0 0.0 0.00 0.23 0.03 100 1010.5
20260508090010 5 195 0.0 0.0 0.03 0.23 0.03 100 1010.6
20260508085510 5 195 0.0 0.0 0.03 0.23 0.03 100 1010.6
20260508085011 5 194 0.0 0.0 0.03 0.23 0.03 100 1010.6
20260508084510 5 195 0.0 0.0 0.03 0.23 0.03 100 1010.6
20260508084010 5 194 0.0 0.0 0.03 0.23 0.03 100 1010.5
20260508083511 5 195 0.0 0.0 0.03 0.23 0.03 100 1010.5
20260508083011 5 194 0.0 0.0 0.03 0.23 0.03 100 1010.5
20260508081511 5 194 0.0 0.0 0.03 0.23 0.03 100 1010.5
20260508081011 5 195 0.0 0.0 0.03 0.23 0.03 100 1010.5
20260508080510 5 195 0.0 0.0 0.03 0.23 0.03 100 1010.6
20260508075010 6 194 0.0 0.0 0.03 0.23 0.03 100 1010.6
20260508074010 6 194 0.0 0.0 0.03 0.23 0.03 100 1010.6
20260508073511 6 194 0.0 0.0 0.03 0.23 0.03 100 1010.6
20260508072510 6 195 0.0 0.0 0.00 0.20 0.00 100 1010.6
20260508071010 6 194 0.0 0.0 0.00 0.20 0.00 2 1010.7
20260508070511 6 194 0.0 0.0 0.00 0.20 0.00 2 1010.8
20260508070010 6 194 0.0 0.0 0.00 0.20 0.00 2 1010.7
20260508065510 6 194 0.0 0.0 0.00 0.20 0.00 2 1010.7
20260508065011 6 194 0.0 0.0 0.00 0.20 0.00 2 1010.8
20260508064510 6 194 0.0 0.0 0.00 0.20 0.00 2 1010.7
20260508063511 6 194 0.0 0.0 0.00 0.20 0.00 1 1010.8
20260508063011 6 194 0.0 0.0 0.00 0.20 0.00 1 1010.8
20260508062511 6 195 0.0 0.0 0.00 0.20 0.00 1 1010.8
20260508062010 6 194 0.0 0.0 0.00 0.20 0.00 1 1010.8
20260508061511 6 195 0.0 0.0 0.00 0.20 0.00 1 1010.7
20260508061011 6 194 0.0 0.0 0.00 0.20 0.00 1 1010.8
20260508060511 6 194 0.0 0.0 0.00 0.20 0.00 4 1010.9
20260508060011 6 194 0.0 0.0 0.00 0.20 0.00 4 1010.9
20260508055511 6 194 0.0 0.0 0.00 0.20 0.00 4 1010.9
20260508055010 6 194 0.0 0.0 0.00 0.20 0.00 4 1010.9
20260508054511 6 194 0.0 0.0 0.00 0.20 0.00 4 1011.0
20260508054011 6 194 0.0 0.0 0.00 0.20 0.00 12 1011.0
20260508053510 6 194 0.0 0.0 0.00 0.20 0.00 12 1011.0
20260508053011 6 194 0.0 0.0 0.00 0.20 0.00 12 1010.9
20260508051511 6 194 0.0 0.0 0.00 0.20 0.00 12 1010.9
20260508051011 6 194 0.0 0.0 0.00 0.20 0.00 12 1010.9
20260508050511 6 194 0.0 0.0 0.00 0.20 0.00 20 1010.9
20260508050010 6 194 0.0 0.0 0.00 0.20 0.00 20 1010.9
20260508045511 6 194 0.0 0.0 0.00 0.20 0.00 20 1010.8
20260508045010 6 194 0.0 0.0 0.00 0.20 0.00 20 1010.8
20260508044511 6 194 0.0 0.0 0.00 0.20 0.00 20 1010.9
20260508044011 6 194 0.0 0.0 0.00 0.20 0.00 20 1010.8
20260508043511 6 194 0.0 0.0 0.00 0.20 0.00 20 1010.8
20260508043011 6 195 0.0 0.0 0.00 0.20 0.00 20 1010.9
20260508042511 6 194 0.0 0.0 0.00 0.20 0.00 27 1010.8
20260508042010 6 195 0.0 0.0 0.00 0.20 0.00 27 1010.8
20260508041511 6 194 0.0 0.0 0.00 0.20 0.00 27 1010.9
20260508041011 6 194 0.0 0.0 0.00 0.20 0.00 27 1010.8
20260508040511 6 194 0.0 0.0 0.00 0.20 0.00 27 1010.9
20260508040011 6 195 0.0 0.0 0.00 0.20 0.00 27 1010.9
20260508035511 6 195 0.0 0.0 0.00 0.20 0.20 33 1010.9
20260508034511 6 194 0.0 0.0 0.00 0.20 0.20 33 1010.8
20260508034011 6 194 0.0 0.0 0.00 0.20 0.20 33 1010.8
20260508033511 6 195 0.0 0.0 0.00 0.20 0.20 34 1010.7
20260508033011 6 194 0.0 0.0 0.00 0.20 0.20 43 1010.7
20260508032011 6 194 0.0 0.0 0.00 0.20 0.20 43 1010.7
20260508031511 6 194 0.0 0.0 0.00 0.20 0.20 43 1010.7
20260508031011 6 194 0.0 0.0 0.00 0.20 0.20 43 1010.8
20260508030511 6 195 0.0 0.0 0.00 0.20 0.20 43 1010.8
20260508030011 6 194 0.0 0.0 0.00 0.20 0.20 46 1010.8
20260508025511 6 195 0.0 0.0 0.00 0.20 0.20 54 1010.8
20260508025011 6 194 0.0 0.0 0.00 0.20 0.20 54 1010.8